sat.trackr.live / text

‹ back to catalog

STARLINK-35221

NORAD 65695 · 2025-212V

PAYLOAD ACTIVE UNKNOWN

§ Identity

Operator
Country
US
Launch date
2025-09-21
Launch site
AFETR
Launch vehicle
Mass (kg)
RCS (m²)

Purposes: comms

External: N2YO · Heavens-Above · Gunter

§ Orbital elements

Epoch: 2026-05-24T23:11:01.463424Z

Period
94.11 min
Inclination
53.1628°
Eccentricity
0.0001478
Mean motion
15.30169400 rev/d
Perigee alt
474.3 km
Apogee alt
476.3 km
Semi-major
6,853.4 km
B*
-3.0692e-4
RAAN
351.2425°
Arg perigee
112.0159°
Mean anomaly
248.0999°
Rev number
3,893

§ Raw data

STARLINK-352211 65695U 25212V   26144.96598916 -.00009429  00000+0 -30692-3 0  99912 65695  53.1628 351.2425 0001478 112.0159 248.0999 15.30169400 38932

JSON: /api/v1/satellites/65695 · /tle

For live sub-satellite position, see the globe view (requires WebGL).

§ Visibility from observer

Set your observer location to see the next 7 days of passes ≥ 10°. The values pass through the URL so the page stays shareable.

No JS? Fill the form by hand. The geolocation button needs JavaScript.